Lastest Insider Transactions Of TEXAS PACIFIC LAND TRUST ( TPL )
SymbolCompany NameInsider NameTitleDateTransationSharePriceAmountFile Date
TPLTEXAS PACIFIC LAND TRUSTHORIZON KINETICS ASSET MANAGEMENT LLC 10% Owner2019-10-10Buy7609.464,2662019-10-11 12:07:41
TPLTEXAS PACIFIC LAND TRUSTHORIZON KINETICS ASSET MANAGEMENT LLC 10% Owner2019-10-09Buy7618.504,3302019-10-10 11:43:20
TPLTEXAS PACIFIC LAND TRUSTHORIZON KINETICS ASSET MANAGEMENT LLC 10% Owner2019-10-08Buy7603.104,2222019-10-09 12:02:13
TPLTEXAS PACIFIC LAND TRUSTHORIZON KINETICS ASSET MANAGEMENT LLC 10% Owner2019-10-07Buy7606.254,2442019-10-08 11:39:07
TPLTEXAS PACIFIC LAND TRUSTTESSLER ALLAN R 10% Owner2019-10-04Buy500603.86301,9302019-10-08 09:43:36
TPLTEXAS PACIFIC LAND TRUSTHORIZON KINETICS ASSET MANAGEMENT LLC 10% Owner2019-10-04Buy5600.033,0002019-10-07 12:17:37
TPLTEXAS PACIFIC LAND TRUSTHORIZON KINETICS ASSET MANAGEMENT LLC 10% Owner2019-10-03Buy5620.873,1042019-10-04 11:15:45
TPLTEXAS PACIFIC LAND TRUSTHORIZON KINETICS ASSET MANAGEMENT LLC 10% Owner2019-10-02Buy5610.983,0552019-10-03 12:19:52
TPLTEXAS PACIFIC LAND TRUSTHORIZON KINETICS ASSET MANAGEMENT LLC 10% Owner2019-10-01Buy10645.356,4542019-10-02 12:39:23
TPLTEXAS PACIFIC LAND TRUSTHORIZON KINETICS ASSET MANAGEMENT LLC 10% Owner2019-09-30Buy5643.243,2162019-10-01 11:44:19
TPLTEXAS PACIFIC LAND TRUSTHORIZON KINETICS ASSET MANAGEMENT LLC 10% Owner2019-09-26Buy5642.553,2132019-09-27 14:13:31
TPLTEXAS PACIFIC LAND TRUSTHORIZON KINETICS ASSET MANAGEMENT LLC 10% Owner2019-09-25Buy5646.313,2322019-09-26 15:58:49
TPLTEXAS PACIFIC LAND TRUSTHORIZON KINETICS ASSET MANAGEMENT LLC 10% Owner2019-09-24Buy5651.513,2582019-09-25 13:46:33
TPLTEXAS PACIFIC LAND TRUSTHORIZON KINETICS ASSET MANAGEMENT LLC 10% Owner2019-09-17Buy43698.3130,0272019-09-18 12:30:09
TPLTEXAS PACIFIC LAND TRUSTHORIZON KINETICS ASSET MANAGEMENT LLC 10% Owner2019-09-16Buy49705.7134,5802019-09-17 12:53:33
TPLTEXAS PACIFIC LAND TRUSTHORIZON KINETICS ASSET MANAGEMENT LLC 10% Owner2019-09-13Buy49673.7833,0152019-09-16 12:24:05
TPLTEXAS PACIFIC LAND TRUSTHORIZON KINETICS ASSET MANAGEMENT LLC 10% Owner2019-09-12Buy49663.0032,4872019-09-13 12:31:52
TPLTEXAS PACIFIC LAND TRUSTHORIZON KINETICS ASSET MANAGEMENT LLC 10% Owner2019-09-11Buy49655.8632,1372019-09-12 11:32:24
TPLTEXAS PACIFIC LAND TRUSTHORIZON KINETICS ASSET MANAGEMENT LLC 10% Owner2019-09-10Buy49659.4032,3112019-09-11 11:11:10
TPLTEXAS PACIFIC LAND TRUSTHORIZON KINETICS ASSET MANAGEMENT LLC 10% Owner2019-09-09Buy49686.9033,6582019-09-10 10:52:23
TPLTEXAS PACIFIC LAND TRUSTHORIZON KINETICS ASSET MANAGEMENT LLC 10% Owner2019-09-06Buy49697.4834,1772019-09-09 11:29:49
TPLTEXAS PACIFIC LAND TRUSTHORIZON KINETICS ASSET MANAGEMENT LLC 10% Owner2019-09-05Buy49706.5034,6192019-09-06 11:19:06
TPLTEXAS PACIFIC LAND TRUSTHORIZON KINETICS ASSET MANAGEMENT LLC 10% Owner2019-09-04Buy49670.2732,8432019-09-05 12:11:28
TPLTEXAS PACIFIC LAND TRUSTHORIZON KINETICS ASSET MANAGEMENT LLC 10% Owner2019-09-03Buy49653.8932,0412019-09-04 10:58:39
TPLTEXAS PACIFIC LAND TRUSTHORIZON KINETICS ASSET MANAGEMENT LLC 10% Owner2019-08-30Buy49654.6032,0752019-09-03 11:39:38
TPLTEXAS PACIFIC LAND TRUSTHORIZON KINETICS ASSET MANAGEMENT LLC 10% Owner2019-08-29Buy54656.1035,4292019-08-30 12:51:27
TPLTEXAS PACIFIC LAND TRUSTHORIZON KINETICS ASSET MANAGEMENT LLC 10% Owner2019-08-28Buy49641.5831,4372019-08-29 11:10:10
TPLTEXAS PACIFIC LAND TRUSTHORIZON KINETICS ASSET MANAGEMENT LLC 10% Owner2019-08-27Buy49637.5031,2382019-08-28 11:21:55
TPLTEXAS PACIFIC LAND TRUSTHORIZON KINETICS ASSET MANAGEMENT LLC 10% Owner2019-08-26Buy49636.0831,1682019-08-27 12:04:43
TPLTEXAS PACIFIC LAND TRUSTHORIZON KINETICS ASSET MANAGEMENT LLC 10% Owner2019-08-23Buy49668.3932,7512019-08-26 11:32:09
TPLTEXAS PACIFIC LAND TRUSTHORIZON KINETICS ASSET MANAGEMENT LLC 10% Owner2019-08-22Buy49674.5033,0512019-08-23 10:52:13
TPLTEXAS PACIFIC LAND TRUSTHORIZON KINETICS ASSET MANAGEMENT LLC 10% Owner2019-08-21Buy49669.3732,7992019-08-22 11:26:31
TPLTEXAS PACIFIC LAND TRUSTHORIZON KINETICS ASSET MANAGEMENT LLC 10% Owner2019-08-20Buy49666.5032,6592019-08-21 10:59:04
TPLTEXAS PACIFIC LAND TRUSTHORIZON KINETICS ASSET MANAGEMENT LLC 10% Owner2019-08-19Buy49679.3633,2892019-08-20 11:06:33
TPLTEXAS PACIFIC LAND TRUSTHORIZON KINETICS ASSET MANAGEMENT LLC 10% Owner2019-08-16Buy49671.4632,9022019-08-19 12:12:54
TPLTEXAS PACIFIC LAND TRUSTHORIZON KINETICS ASSET MANAGEMENT LLC 10% Owner2019-08-15Buy49649.7331,8372019-08-16 11:11:43
TPLTEXAS PACIFIC LAND TRUSTHORIZON KINETICS ASSET MANAGEMENT LLC 10% Owner2019-08-14Buy188641.00120,5082019-08-15 11:10:42
TPLTEXAS PACIFIC LAND TRUSTHORIZON KINETICS ASSET MANAGEMENT LLC 10% Owner2019-08-13Buy49688.7833,7502019-08-14 11:35:41
TPLTEXAS PACIFIC LAND TRUSTHORIZON KINETICS ASSET MANAGEMENT LLC 10% Owner2019-08-12Buy49679.6533,3032019-08-13 11:26:45
TPLTEXAS PACIFIC LAND TRUSTHORIZON KINETICS ASSET MANAGEMENT LLC 10% Owner2019-08-09Buy49673.7033,0112019-08-12 10:06:41
TPLTEXAS PACIFIC LAND TRUSTHORIZON KINETICS ASSET MANAGEMENT LLC 10% Owner2019-08-08Buy49674.3933,0452019-08-09 11:05:49
TPLTEXAS PACIFIC LAND TRUSTHORIZON KINETICS ASSET MANAGEMENT LLC 10% Owner2019-08-07Buy49659.1232,2972019-08-08 10:56:42
TPLTEXAS PACIFIC LAND TRUSTHORIZON KINETICS ASSET MANAGEMENT LLC 10% Owner2019-08-06Buy49681.0033,3692019-08-07 10:17:53
TPLTEXAS PACIFIC LAND TRUSTHORIZON KINETICS ASSET MANAGEMENT LLC 10% Owner2019-08-05Buy49689.7633,7982019-08-06 10:12:16
TPLTEXAS PACIFIC LAND TRUSTHORIZON KINETICS ASSET MANAGEMENT LLC 10% Owner2019-08-02Buy49720.2335,2912019-08-05 09:56:23
TPLTEXAS PACIFIC LAND TRUSTHORIZON KINETICS ASSET MANAGEMENT LLC 10% Owner2019-08-01Buy49759.8537,2332019-08-02 10:40:14
TPLTEXAS PACIFIC LAND TRUSTHORIZON KINETICS ASSET MANAGEMENT LLC 10% Owner2019-07-31Buy49800.0039,2002019-08-01 14:32:51
TPLTEXAS PACIFIC LAND TRUSTHORIZON KINETICS ASSET MANAGEMENT LLC 10% Owner2019-07-30Buy49755.4937,0192019-07-31 11:19:06
TPLTEXAS PACIFIC LAND TRUSTHORIZON KINETICS ASSET MANAGEMENT LLC 10% Owner2019-07-29Buy49740.5036,2852019-07-30 16:29:38
TPLTEXAS PACIFIC LAND TRUSTHORIZON KINETICS ASSET MANAGEMENT LLC 10% Owner2019-07-26Buy49749.5036,7262019-07-29 11:36:44
TPLTEXAS PACIFIC LAND TRUSTHORIZON KINETICS ASSET MANAGEMENT LLC 10% Owner2019-07-25Buy49744.4936,4802019-07-26 11:35:51
TPLTEXAS PACIFIC LAND TRUSTHORIZON KINETICS ASSET MANAGEMENT LLC 10% Owner2019-07-24Buy49753.1236,9032019-07-25 12:05:08
TPLTEXAS PACIFIC LAND TRUSTHORIZON KINETICS ASSET MANAGEMENT LLC 10% Owner2019-07-23Buy49749.4436,7232019-07-24 11:08:10
TPLTEXAS PACIFIC LAND TRUSTHORIZON KINETICS ASSET MANAGEMENT LLC 10% Owner2019-07-22Buy49768.8437,6732019-07-23 10:40:06
TPLTEXAS PACIFIC LAND TRUSTHORIZON KINETICS ASSET MANAGEMENT LLC 10% Owner2019-07-19Buy49764.5037,4612019-07-22 11:30:41
TPLTEXAS PACIFIC LAND TRUSTHORIZON KINETICS ASSET MANAGEMENT LLC 10% Owner2019-07-18Buy49759.5037,2162019-07-19 11:00:58
TPLTEXAS PACIFIC LAND TRUSTHORIZON KINETICS ASSET MANAGEMENT LLC 10% Owner2019-07-17Buy157769.49120,8102019-07-18 16:15:25
TPLTEXAS PACIFIC LAND TRUSTHORIZON KINETICS ASSET MANAGEMENT LLC 10% Owner2019-07-16Buy49779.6138,2012019-07-17 10:55:24
TPLTEXAS PACIFIC LAND TRUSTHORIZON KINETICS ASSET MANAGEMENT LLC 10% Owner2019-07-15Buy49795.0038,9552019-07-16 12:11:40
TPLTEXAS PACIFIC LAND TRUSTHORIZON KINETICS ASSET MANAGEMENT LLC 10% Owner2019-07-12Buy49798.1539,1092019-07-15 11:12:06
TPLTEXAS PACIFIC LAND TRUSTHORIZON KINETICS ASSET MANAGEMENT LLC 10% Owner2019-07-11Buy49808.8939,6362019-07-12 11:46:21
TPLTEXAS PACIFIC LAND TRUSTHORIZON KINETICS ASSET MANAGEMENT LLC 10% Owner2019-07-10Buy50797.5839,8792019-07-11 12:10:13
TPLTEXAS PACIFIC LAND TRUSTHORIZON KINETICS ASSET MANAGEMENT LLC 10% Owner2019-07-09Buy50789.7339,4872019-07-10 11:30:28
TPLTEXAS PACIFIC LAND TRUSTHORIZON KINETICS ASSET MANAGEMENT LLC 10% Owner2019-07-08Buy50810.2040,5102019-07-09 11:44:10
TPLTEXAS PACIFIC LAND TRUSTHORIZON KINETICS ASSET MANAGEMENT LLC 10% Owner2019-07-05Buy50798.6739,9342019-07-08 11:15:21
TPLTEXAS PACIFIC LAND TRUSTHORIZON KINETICS ASSET MANAGEMENT LLC 10% Owner2019-07-03Buy50793.7439,6872019-07-05 11:21:11
TPLTEXAS PACIFIC LAND TRUSTHORIZON KINETICS ASSET MANAGEMENT LLC 10% Owner2019-07-02Buy50811.0440,5522019-07-03 10:59:13
TPLTEXAS PACIFIC LAND TRUSTHORIZON KINETICS ASSET MANAGEMENT LLC 10% Owner2019-07-01Buy50799.9940,0002019-07-02 12:22:41
TPLTEXAS PACIFIC LAND TRUSTHORIZON KINETICS ASSET MANAGEMENT LLC 10% Owner2019-06-28Buy50795.2439,7622019-07-01 11:26:23
TPLTEXAS PACIFIC LAND TRUSTHORIZON KINETICS ASSET MANAGEMENT LLC 10% Owner2019-06-27Buy50785.9839,2992019-06-28 11:17:01
TPLTEXAS PACIFIC LAND TRUSTHORIZON KINETICS ASSET MANAGEMENT LLC 10% Owner2019-06-26Buy50817.1840,8592019-06-27 11:23:54
TPLTEXAS PACIFIC LAND TRUSTHORIZON KINETICS ASSET MANAGEMENT LLC 10% Owner2019-06-25Buy50787.2039,3602019-06-26 14:00:24
TPLTEXAS PACIFIC LAND TRUSTHORIZON KINETICS ASSET MANAGEMENT LLC 10% Owner2019-06-24Buy50782.1239,1062019-06-25 10:58:10
TPLTEXAS PACIFIC LAND TRUSTHORIZON KINETICS ASSET MANAGEMENT LLC 10% Owner2019-06-21Buy50791.0739,5542019-06-24 11:49:12
TPLTEXAS PACIFIC LAND TRUSTHORIZON KINETICS ASSET MANAGEMENT LLC 10% Owner2019-06-20Buy50796.7239,8362019-06-21 11:07:39
TPLTEXAS PACIFIC LAND TRUSTHORIZON KINETICS ASSET MANAGEMENT LLC 10% Owner2019-06-19Buy50755.8837,7942019-06-20 11:14:47
TPLTEXAS PACIFIC LAND TRUSTHORIZON KINETICS ASSET MANAGEMENT LLC 10% Owner2019-06-18Buy50735.0936,7552019-06-19 11:18:14
TPLTEXAS PACIFIC LAND TRUSTHORIZON KINETICS ASSET MANAGEMENT LLC 10% Owner2019-06-17Buy50718.9635,9482019-06-18 12:09:50
TPLTEXAS PACIFIC LAND TRUSTHORIZON KINETICS ASSET MANAGEMENT LLC 10% Owner2019-06-14Buy50739.9937,0002019-06-17 12:26:21
TPLTEXAS PACIFIC LAND TRUSTHORIZON KINETICS ASSET MANAGEMENT LLC 10% Owner2019-06-13Buy50726.1336,3072019-06-14 13:43:27
TPLTEXAS PACIFIC LAND TRUSTHORIZON KINETICS ASSET MANAGEMENT LLC 10% Owner2019-06-12Buy50744.2237,2112019-06-13 12:29:44
TPLTEXAS PACIFIC LAND TRUSTHORIZON KINETICS ASSET MANAGEMENT LLC 10% Owner2019-06-11Buy50771.1138,5562019-06-12 11:13:31
TPLTEXAS PACIFIC LAND TRUSTHORIZON KINETICS ASSET MANAGEMENT LLC 10% Owner2019-06-10Buy50764.7738,2392019-06-11 11:02:16
TPLTEXAS PACIFIC LAND TRUSTHORIZON KINETICS ASSET MANAGEMENT LLC 10% Owner2019-06-07Buy50749.9137,4962019-06-10 11:15:00
TPLTEXAS PACIFIC LAND TRUSTHORIZON KINETICS ASSET MANAGEMENT LLC 10% Owner2019-06-06Buy175740.80129,6402019-06-07 11:13:54
TPLTEXAS PACIFIC LAND TRUSTHORIZON KINETICS ASSET MANAGEMENT LLC 10% Owner2019-06-05Buy50730.0736,5042019-06-06 11:16:33
TPLTEXAS PACIFIC LAND TRUSTHORIZON KINETICS ASSET MANAGEMENT LLC 10% Owner2019-06-04Buy50732.7836,6392019-06-05 11:44:30
TPLTEXAS PACIFIC LAND TRUSTHORIZON KINETICS ASSET MANAGEMENT LLC 10% Owner2019-06-03Buy50738.7836,9392019-06-04 11:03:09
TPLTEXAS PACIFIC LAND TRUSTHORIZON KINETICS ASSET MANAGEMENT LLC 10% Owner2019-05-31Buy50752.0737,6042019-06-03 11:30:43
TPLTEXAS PACIFIC LAND TRUSTHORIZON KINETICS ASSET MANAGEMENT LLC 10% Owner2019-05-30Buy50799.0039,9502019-05-31 10:46:20
TPLTEXAS PACIFIC LAND TRUSTHORIZON KINETICS ASSET MANAGEMENT LLC 10% Owner2019-05-29Buy50813.2140,6612019-05-30 11:20:15
TPLTEXAS PACIFIC LAND TRUSTHORIZON KINETICS ASSET MANAGEMENT LLC 10% Owner2019-05-28Buy50790.3239,5162019-05-29 11:11:54
TPLTEXAS PACIFIC LAND TRUSTHORIZON KINETICS ASSET MANAGEMENT LLC 10% Owner2019-05-24Buy50790.0939,5052019-05-28 12:37:46
TPLTEXAS PACIFIC LAND TRUSTHORIZON KINETICS ASSET MANAGEMENT LLC 10% Owner2019-05-23Buy36792.0928,5152019-05-24 11:46:29
TPLTEXAS PACIFIC LAND TRUSTHORIZON KINETICS ASSET MANAGEMENT LLC 10% Owner2019-05-22Buy36831.2329,9242019-05-23 11:53:01
TPLTEXAS PACIFIC LAND TRUSTHORIZON KINETICS ASSET MANAGEMENT LLC 10% Owner2019-05-21Buy36849.4830,5812019-05-22 11:04:19
TPLTEXAS PACIFIC LAND TRUSTHORIZON KINETICS ASSET MANAGEMENT LLC 10% Owner2019-05-20Buy36860.0930,9632019-05-21 10:40:57
TPLTEXAS PACIFIC LAND TRUSTHORIZON KINETICS ASSET MANAGEMENT LLC 10% Owner2019-05-17Buy36845.4230,4352019-05-20 10:14:29
TPLTEXAS PACIFIC LAND TRUSTHORIZON KINETICS ASSET MANAGEMENT LLC 10% Owner2019-05-16Buy36842.5730,3332019-05-17 10:04:17
TPLTEXAS PACIFIC LAND TRUSTHORIZON KINETICS ASSET MANAGEMENT LLC 10% Owner2019-05-15Buy36837.8430,1622019-05-16 11:34:48
TPLTEXAS PACIFIC LAND TRUSTHORIZON KINETICS ASSET MANAGEMENT LLC 10% Owner2019-05-14Buy36805.7329,0062019-05-15 11:34:45
TPLTEXAS PACIFIC LAND TRUSTHORIZON KINETICS ASSET MANAGEMENT LLC 10% Owner2019-05-13Buy36787.2028,3392019-05-14 10:54:29
TPLTEXAS PACIFIC LAND TRUSTHORIZON KINETICS ASSET MANAGEMENT LLC 10% Owner2019-05-10Buy36780.7828,1082019-05-13 11:32:25
TPLTEXAS PACIFIC LAND TRUSTHORIZON KINETICS ASSET MANAGEMENT LLC 10% Owner2019-05-09Buy36779.9928,0802019-05-10 11:13:56
TPLTEXAS PACIFIC LAND TRUSTHORIZON KINETICS ASSET MANAGEMENT LLC 10% Owner2019-05-08Buy36799.9828,7992019-05-09 11:04:39
TPLTEXAS PACIFIC LAND TRUSTHORIZON KINETICS ASSET MANAGEMENT LLC 10% Owner2019-05-07Buy36781.2128,1242019-05-08 11:30:56
TPLTEXAS PACIFIC LAND TRUSTHORIZON KINETICS ASSET MANAGEMENT LLC 10% Owner2019-05-06Buy36807.2329,0602019-05-07 12:35:40
TPLTEXAS PACIFIC LAND TRUSTHorizon Kinetics LLC 10% Owner2019-05-03Buy36807.2029,0592019-05-06 11:28:51
TPLTEXAS PACIFIC LAND TRUSTHorizon Kinetics LLC 10% Owner2019-05-02Buy36819.9929,5202019-05-03 11:46:58
TPLTEXAS PACIFIC LAND TRUSTHorizon Kinetics LLC 10% Owner2019-05-02Buy36819.9929,5202019-05-03 11:46:58
TPLTEXAS PACIFIC LAND TRUSTHorizon Kinetics LLC 10% Owner2019-05-01Buy36806.6829,0402019-05-02 11:14:59
TPLTEXAS PACIFIC LAND TRUSTHorizon Kinetics LLC 10% Owner2019-04-30Buy36809.6529,1472019-05-01 11:31:18
TPLTEXAS PACIFIC LAND TRUSTHorizon Kinetics LLC 10% Owner2019-04-29Buy36837.9330,1652019-04-30 11:34:50
TPLTEXAS PACIFIC LAND TRUSTHorizon Kinetics LLC 10% Owner2019-04-26Buy36879.0031,6442019-04-29 11:13:18
TPLTEXAS PACIFIC LAND TRUSTHorizon Kinetics LLC 10% Owner2019-04-25Buy36897.2532,3012019-04-26 11:06:58
TPLTEXAS PACIFIC LAND TRUSTHorizon Kinetics LLC 10% Owner2019-04-24Buy36899.8732,3952019-04-25 12:04:27
TPLTEXAS PACIFIC LAND TRUSTHorizon Kinetics LLC 10% Owner2019-04-23Buy36898.8732,3592019-04-24 11:14:07
TPLTEXAS PACIFIC LAND TRUSTHorizon Kinetics LLC 10% Owner2019-04-22Buy36896.0732,2592019-04-23 12:22:13
TPLTEXAS PACIFIC LAND TRUSTHorizon Kinetics LLC 10% Owner2019-04-18Buy42899.9237,7972019-04-22 10:59:25
TPLTEXAS PACIFIC LAND TRUSTHorizon Kinetics LLC 10% Owner2019-04-17Buy42887.2337,2642019-04-18 11:39:21
TPLTEXAS PACIFIC LAND TRUSTHorizon Kinetics LLC 10% Owner2019-04-16Buy42898.4937,7372019-04-17 10:58:42
TPLTEXAS PACIFIC LAND TRUSTHorizon Kinetics LLC 10% Owner2019-04-15Buy42903.0537,9282019-04-16 11:40:28
TPLTEXAS PACIFIC LAND TRUSTHorizon Kinetics LLC 10% Owner2019-04-12Buy42903.5237,9482019-04-15 11:48:20
TPLTEXAS PACIFIC LAND TRUSTHorizon Kinetics LLC 10% Owner2019-04-11Buy42911.0738,2652019-04-12 11:04:03
TPLTEXAS PACIFIC LAND TRUSTHorizon Kinetics LLC 10% Owner2019-04-10Buy42874.0636,7112019-04-11 11:27:46
TPLTEXAS PACIFIC LAND TRUSTHorizon Kinetics LLC 10% Owner2019-04-09Buy36821.5529,5762019-04-10 11:34:56
TPLTEXAS PACIFIC LAND TRUSTHorizon Kinetics LLC 10% Owner2019-04-08Buy7814.505,7022019-04-09 11:54:00
TPLTEXAS PACIFIC LAND TRUSTHorizon Kinetics LLC 10% Owner2019-04-05Buy42792.2733,2752019-04-08 11:02:20
TPLTEXAS PACIFIC LAND TRUSTHorizon Kinetics LLC 10% Owner2019-04-04Buy1,516784.571,189,4082019-04-05 11:24:17
TPLTEXAS PACIFIC LAND TRUSTHorizon Kinetics LLC 10% Owner2019-04-03Buy42797.8833,5112019-04-04 11:41:37
TPLTEXAS PACIFIC LAND TRUSTHorizon Kinetics LLC 10% Owner2019-04-02Buy42801.1633,6492019-04-03 11:49:45
TPLTEXAS PACIFIC LAND TRUSTHorizon Kinetics LLC 10% Owner2019-04-01Buy42784.3032,9412019-04-02 11:31:14
TPLTEXAS PACIFIC LAND TRUSTHorizon Kinetics LLC 10% Owner2019-03-29Buy42773.4832,4862019-04-01 11:47:26
TPLTEXAS PACIFIC LAND TRUSTHorizon Kinetics LLC 10% Owner2019-03-28Buy7774.835,4242019-03-29 11:55:26
TPLTEXAS PACIFIC LAND TRUSTHorizon Kinetics LLC 10% Owner2019-03-27Buy42774.3832,5242019-03-28 11:57:45
TPLTEXAS PACIFIC LAND TRUSTHorizon Kinetics LLC 10% Owner2019-03-26Buy42764.2832,1002019-03-27 11:31:46
TPLTEXAS PACIFIC LAND TRUSTHorizon Kinetics LLC 10% Owner2019-03-25Buy42725.3630,4652019-03-26 13:23:12
TPLTEXAS PACIFIC LAND TRUSTHorizon Kinetics LLC 10% Owner2019-03-22Buy42751.1031,5462019-03-25 11:55:40
TPLTEXAS PACIFIC LAND TRUSTHorizon Kinetics LLC 10% Owner2019-03-21Buy42767.8932,2512019-03-22 12:31:08
TPLTEXAS PACIFIC LAND TRUSTHorizon Kinetics LLC 10% Owner2019-03-20Buy42765.9832,1712019-03-21 16:32:36
TPLTEXAS PACIFIC LAND TRUSTHorizon Kinetics LLC 10% Owner2019-03-19Buy42760.6931,9492019-03-20 12:28:30
TPLTEXAS PACIFIC LAND TRUSTHorizon Kinetics LLC 10% Owner2019-03-18Buy42741.1631,1292019-03-19 12:36:40
TPLTEXAS PACIFIC LAND TRUSTHorizon Kinetics LLC 10% Owner2019-03-15Buy42748.1431,4222019-03-18 16:40:56
TPLTEXAS PACIFIC LAND TRUSTBarry David E.2018-12-26Buy100467.0646,7062018-12-27 16:10:09
TPLTEXAS PACIFIC LAND TRUSTPacker Robert JChief Financial Officer2018-12-04Buy100589.0058,9002018-12-06 16:15:44
TPLTEXAS PACIFIC LAND TRUSTGLOVER TYLERCo-General Agent2018-12-04Buy100598.0059,8002018-12-06 16:15:03
TPLTEXAS PACIFIC LAND TRUSTMeyer Maurice III2018-11-19Sell500607.26303,6302018-11-21 12:56:42
TPLTEXAS PACIFIC LAND TRUSTMeyer Maurice III2018-11-14Sell1,000573.10573,0952018-11-16 16:45:25
TPLTEXAS PACIFIC LAND TRUSTBarry David E.Directior2018-10-11Buy100810.0081,0002018-10-12 16:05:30
TPLTEXAS PACIFIC LAND TRUSTMeyer Maurice III2018-10-03Sell109874.0095,2662018-10-04 16:41:46
TPLTEXAS PACIFIC LAND TRUSTMeyer Maurice III2018-09-26Sell1,000860.80860,8002018-09-28 16:12:06
TPLTEXAS PACIFIC LAND TRUSTMeyer Maurice III2018-09-12Sell500835.00417,5002018-09-14 16:49:23
TPLTEXAS PACIFIC LAND TRUSTMeyer Maurice III2018-08-27Sell1,000854.13854,1322018-08-27 16:09:48